Zurück zum Katalog

SL-8 R/B

AktivLEO
NORAD 5218·ROCKET BODY·🇷🇺 Russia

Gestartet May 7, 1971 von Plesetsk Cosmodrome

Loading…

Nächste Überflüge (nächste 24 Stunden)

TLE

AktuellSource: Space-Track

Epoche: Sep 14, 2026, 15:06 UTC

1 05218U 71041J   26257.62978715 -.00000046  00000-0 -25648-3 0  9996
2 05218  74.0303  21.7184 0066767  12.5387 359.1806 12.32230110705836

Verfolge SL-8 R/B in Echtzeit mit AllMySat

Download on the App Store